Weather Roundup
Issued by NWS Chicago, IL

Home | Current Version | Previous Version | Text Only | Print | Product List | Glossary Off
Versions: 1 2 3 4 5 6 7 8 9 10 11 12 13 14 15 16 17 18 19 20 21 22 23 24 25 26 27 28 29 30 31 32 33 34 35 36 37 38 39 40 41 42 43 44 45 46 47 48 49 50

000
NZUS59 KLOT 271258
HRRLOT

CHICAGO AREA WEATHER ROUNDUP
NATIONAL WEATHER SERVICE CHICAGO/ROMEOVILLE IL
700 AM CST FRI FEB 27 2015

NOTE: "FAIR" INDICATES FEW OR NO CLOUDS BELOW 12,000 FEET WITH NO
SIGNIFICANT WEATHER AND/OR OBSTRUCTIONS TO VISIBILITY.

* THESE STATIONS ARE NOT UNDER NWS QUALITY CONTROL. THEY ALSO MAY NOT
  REPORT WEATHER SUCH AS PRECIPITATION OR FOG.

ILZ005-006-012>014-019>023-271400-
NORTHEAST ILLINOIS

CITY           SKY/WX    TMP DP  RH WIND       PRES   REMARKS
OHARE          PTCLDY     0 -10  63 NW9       30.52R WCI -15
MIDWAY         NOT AVBL
AURORA         PTCLDY   -12 -18  74 NW6       30.54R WCI -26
WAUKEGAN       NOT AVBL
DUPAGE AIRPORT CLEAR     -5 -11  75 CALM      30.52R
WHEELING       CLEAR      1 -10  60 NW9       30.54R WCI -14
NORTHERLY IS     N/A      8  -1  66 W6          N/A  WCI  -2
$$

WIZ051-052-058>065-066-070>072-271400-
SOUTHEAST WISCONSIN

CITY           SKY/WX    TMP DP  RH WIND       PRES   REMARKS
MILWAUKEE      CLEAR      1  -9  62 W9        30.51R WCI -14
WAUKESHA       CLEAR     -4 -11  71 W7        30.50R WCI -18
$$

INZ001>003-010>013-019-020-271400-
NORTHWEST INDIANA

CITY           SKY/WX    TMP DP  RH WIND       PRES   REMARKS
GARY*          NOT AVBL
MICHIGAN CITY* NOT AVBL
RENSSELAER*    NOT AVBL
$$

LMZ740>746-271400-
SOUTHERN LAKE MICHIGAN

STATION/POSITION TIME  SKY/WX   TEMP WIND        PRES    VSBY
                                AIR  DIR/SP/G
                 (UTC)          (F)  (DEG/KT/KT) (MB)    (MI)
HARRISON CRIB    1200             7  300/ 10/ 12   N/A
BURNHAM HARBOR   1200             8  270/  6/  8   N/A
CALUMET HARBOR   1200             5  270/  5/  6 1032.2R
BURNS HARBOR     NOT AVBL
MICHIGAN CITY    1200             4  130/  2/  4   N/A
$$

ABBREVIATIONS USED IN REMARKS
   TC - TEMPERATURE IN CELSIUS
  WCI - WIND CHILL INDEX
   HX - HEAT INDEX
  VSB - VISIBILITY
$$


USA.gov is the U.S. government's official web portal to all federal, state and local government web resources and services.